Regional Weather Roundup
Issued by NWS State College, PA

Home | Current Version | Previous Version | Graphics & Text | Print | Product List | Glossary Off
Versions: 1 2 3 4 5 6 7 8 9 10 11 12 13 14 15 16 17 18 19 20 21 22 23 24 25 26 27 28 29 30 31 32 33 34 35 36 37 38 39 40 41 42 43 44 45 46 47 48 49 50

000
ASUS41 KCTP 272103
RWRCTP

REGIONAL WEATHER ROUNDUP
NATIONAL WEATHER SERVICE STATE COLLEGE PA
500 PM EDT WED AUG 27 2014

Note: "fair" indicates few or no clouds below 12,000 feet with no
significant weather and/or obstructions to visibility.

* = STATION THAT DOES NOT REPORT PRECIPITATION /E.G. RAIN...SNOW...ETC/
    THUNDER OR FOG.

PAZ002>004-007>009-013>016-020>023-029>032-272200-
WESTERN PENNSYLVANIA

CITY           SKY/WX    TMP DP  RH WIND       PRES   REMARKS
ERIE           MOSUNNY   75  57  53 W9        30.06F
MEADVILLE      PTSUNNY   74  62  66 NW9       30.08R
FRANKLIN*      PTSUNNY   77  64  65 NW3       30.07R
NEW CASTLE     MOCLDY    80  71  74 NW12      30.04S
BEAVER COUNTY  PTSUNNY   82  68  61 W5        30.03S
BUTLER*        MOSUNNY   81  70  69 NW6       30.05S
PITTSBURGH INT PTSUNNY   83  70  64 NW13      30.02S
PITTSBURGH     MOSUNNY   84  68  58 NW8       30.00F
INDIANA*       PTSUNNY   82  70  65 W10       30.04F
LATROBE        MOSUNNY   82  73  74 W12       30.02F
WASHINGTON CO* PTSUNNY   84  70  61 W9        30.03S
$$

PAZ004>006-010>012-017>019-024>028-033>037-041-042-045-046-049>053-272200-
CENTRAL PENNSYLVANIA

CITY           SKY/WX    TMP DP  RH WIND       PRES   REMARKS
BRADFORD       SUNNY     77  64  64 NW10      30.05R
DUBOIS         PTSUNNY   79  65  62 W8        30.02S
CLEARFIELD     SUNNY     85  66  53 NW12      30.00S
JOHNSTOWN      MOSUNNY   81  66  60 W9        30.05F
ALTOONA        MOSUNNY   86  66  51 NW7       30.00F
STATE COLLEGE  MOSUNNY   86  68  54 NW8       29.97F
WILLIAMSPORT   MOSUNNY   90  67  46 W6        29.90F
SELINSGROVE    SUNNY     88  73  61 VRB3      29.92F HX  95
FT INDIANTOWN  SUNNY     88  71  56 SW9       29.93F
CAPITAL CITY   MOSUNNY   87  68  52 SW8       29.92F
HARRISBURG     MOSUNNY   88  72  58 W6        29.92F
YORK           SUNNY     86  69  56 W3        29.94F
$$

PAZ038>040-043-044-047-048-054-055-060>062-067>071-272200-
EASTERN PENNSYLVANIA

CITY           SKY/WX    TMP DP  RH WIND       PRES   REMARKS
SCRANTON       MOSUNNY   86  67  52 W5        29.93F
MOUNT POCONO   MOSUNNY   82  65  56 NW7       29.99S
ALLENTOWN      SUNNY     88  69  53 SW10      29.92S
QUAKERTOWN*    CLEAR     88  68  51 MISG      29.94S
READING        SUNNY     88  68  51 W10       29.91F
LANCASTER      SUNNY     87  66  49 W9        29.93F
COATESVILLE    CLEAR     84  68  58 SW5       29.96S
POTTSTOWN      SUNNY     87  66  49 VRB6      29.94S
BLUE BELL      MOSUNNY   88  68  51 W3        29.91F
DOYLESTOWN     SUNNY     88  66  48 W8        29.91S
WILLOW GROVE   NOT AVBL
NORTH PHILA    SUNNY     91  63  39 CALM      29.92F
PHILADELPHIA   SUNNY     89  64  43 SW8       29.91F
$$


USA.gov is the U.S. government's official web portal to all federal, state and local government web resources and services.